Wind_Gust
8 7 9 8 9 9 8 7 6 6 7 7 8 9 8 8 9 7 6 7 8 7 7 8 7 9 11 10 9 8 9 7 8 8 8 8 9 10 12 12 10 8
9 9 9 8 6 5 7 7 7 7 8 7 8 7 8 6 8 6 6 7 5 6 7 8 7 8 9 10 9 9 8 8 9 9 9 9 9 9 10 11 11 9
8 8 9 9 10 8 9 8 7 7 7 8 6 6 7 5 7 8 7 4 5 5 6 6 6 7 8 8 8 7 8 8 9 10 8 9 9 9 9 10 11 11
9 10 11 9 9 9 8 6 6 6 6 7 9 7 5 6 5 7 5 6 6 6 6 6 6 6 6 7 7 7 7 7 6 7 8 9 9 9 10 10 10 12
12 11 9 11 8 7 5 6 8 7 6 8 6 7 5 6 7 6 5 5 5 5 6 6 6 7 7 7 6 7 7 9 9 9 9 9 10 9 10 10 11 12
7 9 10 10 9 9 8 8 9 6 7 5 9 6 4 5 5 6 4 4 5 5 5 5 6 6 6 5 6 6 6 9 9 8 9 9 11 11 10 10 10 12
10 9 10 9 8 9 9 9 7 6 7 8 3 6 4 5 6 7 6 5 6 5 4 6 7 8 7 5 6 7 7 6 7 9 9 11 10 12 10 9 10 10
9 8 10 10 10 9 10 9 8 8 7 4 6 8 4 6 7 7 5 6 6 7 7 7 8 8 8 7 8 8 8 7 8 8 9 11 11 12 13 11 9 10
9 9 10 10 11 10 9 10 9 8 5 6 7 8 5 6 7 8 8 6 7 8 8 7 8 8 7 6 8 8 9 9 7 6 7 9 12 14 14 12 12 10
9 9 10 11 11 11 11 9 9 8 6 7 8 7 7 6 6 8 8 7 7 8 8 8 8 8 7 7 8 8 8 9 8 8 8 9 10 12 14 14 13 13
9 9 10 11 12 10 11 10 9 9 7 8 7 8 8 6 7 6 7 8 9 9 9 9 8 8 8 8 7 7 8 8 7 8 9 10 10 11 13 13 14 15
10 9 11 12 12 10 11 11 10 9 9 7 7 9 7 6 7 7 7 9 9 10 9 9 8 8 8 8 9 7 7 7 7 8 9 10 11 11 12 13 14 16
10 11 12 10 11 12 10 8 9 9 8 9 8 8 7 7 7 8 8 8 10 9 9 9 9 8 8 8 9 8 7 8 9 9 9 10 10 11 12 13 14 14
11 10 9 10 10 10 9 9 8 8 9 8 5 7 8 8 9 8 8 6 8 8 9 8 8 9 9 9 9 8 8 8 8 9 10 11 11 12 11 12 13 14
9 6 7 9 10 9 8 9 9 9 7 6 6 8 8 8 7 6 7 9 8 8 9 8 8 9 8 9 9 9 8 9 9 10 11 12 12 13 13 12 12 12
6 5 6 8 8 9 11 10 10 9 7 7 8 9 8 6 6 5 6 8 9 9 8 8 8 8 9 11 9 9 9 8 9 10 9 10 12 14 15 13 12 12
5 7 7 9 11 10 8 8 9 8 7 7 8 8 8 7 6 6 8 8 8 8 9 9 9 9 10 11 12 13 7 8 8 11 10 10 10 11 14 16 15 12
7 7 8 9 8 9 9 8 8 7 8 8 8 9 10 7 6 8 8 8 8 8 8 10 10 10 12 12 13 12 8 8 8 9 11 11 10 11 13 13 14 14
7 8 9 7 9 9 9 9 10 8 8 8 12 12 6 7 10 7 9 8 7 9 10 10 9 10 12 13 13 12 10 9 9 9 10 11 11 11 12 14 13 14
7 7 8 9 8 8 8 9 9 11 10 9 8 6 8 9 8 9 9 9 10 9 10 9 10 10 12 13 13 14 11 6 8 10 10 11 11 12 12 12 11 12
7 7 9 9 8 8 8 9 10 9 8 10 10 11 11 12 12 10 10 9 10 9 8 9 11 10 11 12 13 15 9 7 9 9 10 10 11 10 11 12 11 10
8 8 9 7 8 7 8 9 9 10 12 9 8 9 8 6 8 6 10 11 11 9 7 10 12 13 12 14 15 12 7 8 8 9 9 10 11 11 11 11 11 10
9 9 9 8 8 9 10 10 10 10 10 7 8 9 9 9 11 11 10 9 10 9 8 10 12 14 13 14 14 10 5 9 8 9 9 10 11 11 11 11 10 9
9 10 10 9 8 11 12 12 10 7 10 9 12 11 11 13 11 10 9 9 9 11 10 9 12 13 14 15 15 11 9 10 8 8 10 10 12 11 11 11 11 14
9 9 10 9 11 13 12 11 12 14 10 8 11 9 11 9 6 9 10 9 9 9 13 12 10 12 14 15 14 12 9 8 8 7 9 11 10 13 12 11 10 9
8 10 10 11 14 12 10 13 10 6 10 10 10 11 11 9 7 7 9 11 8 7 9 8 10 13 14 15 15 11 10 8 6 7 9 10 9 11 13 14 11 8
Wind_Speed
5 4 6 5 5 5 5 4 4 4 5 4 4 5 4 4 5 5 3 4 3 4 5 4 5 5 4 5 4 4 4 4 4 4 4 4 5 6 5 6 5 4
6 6 5 5 4 3 4 4 4 4 5 4 5 4 4 4 5 4 3 3 3 4 4 5 4 4 4 4 4 4 4 4 5 3 5 6 5 5 6 7 6 4
5 5 6 6 6 6 6 5 4 4 4 5 4 4 4 3 4 4 1 1 1 3 3 3 3 4 4 3 3 3 4 4 5 5 4 5 5 5 5 6 6 7
6 7 7 6 6 6 5 4 4 4 3 4 5 4 2 3 3 4 2 1 1 2 2 1 3 3 4 4 4 3 3 3 2 2 4 4 4 4 5 5 5 6
6 6 6 7 5 4 3 4 5 5 4 5 4 4 2 3 4 4 3 2 2 3 3 2 3 3 2 3 3 4 3 4 3 3 4 5 4 4 5 4 6 7
5 6 7 6 6 5 5 5 6 4 4 4 6 3 3 3 4 4 3 3 3 3 4 4 4 4 3 2 2 3 3 4 4 3 4 4 5 4 3 4 5 7
6 6 7 5 6 6 6 6 5 4 4 5 2 4 3 3 4 5 5 4 4 4 3 4 5 5 4 3 2 4 4 3 4 4 5 5 4 6 4 4 4 5
6 5 6 6 7 6 6 6 5 5 5 2 4 5 3 4 5 5 4 4 4 5 5 5 5 5 5 4 5 5 5 3 3 4 5 6 5 7 6 3 4 5
5 6 6 7 7 6 6 6 6 5 4 4 5 5 4 4 5 5 5 5 5 5 5 5 5 5 4 3 5 5 5 5 4 3 4 5 6 7 7 5 5 5
6 5 6 7 7 7 7 6 6 5 4 5 5 5 5 4 4 6 5 5 5 5 5 5 5 5 5 4 5 5 5 5 5 5 5 5 6 7 6 6 6 7
6 6 7 7 8 6 7 6 6 6 4 5 5 5 5 4 4 4 5 5 5 6 6 6 5 5 5 5 4 4 5 5 4 4 5 5 6 7 7 7 7 8
6 6 7 8 8 7 7 7 6 6 6 5 5 6 5 4 5 4 4 6 6 6 6 6 5 5 5 5 5 5 4 4 4 4 4 5 6 6 6 6 7 9
6 7 7 7 7 8 6 5 6 6 6 6 5 5 5 5 5 5 5 5 6 6 6 6 6 5 5 5 5 5 4 5 4 4 5 5 5 6 6 7 7 8
5 5 5 6 5 4 5 5 5 5 6 5 3 5 5 6 6 5 5 4 5 5 6 5 5 6 6 6 5 5 5 5 4 4 4 5 6 7 6 6 6 7
3 3 3 3 4 4 5 6 6 6 5 4 4 5 5 5 5 5 5 6 6 5 5 4 4 5 5 5 5 6 5 5 4 4 3 4 5 7 7 6 5 6
3 3 3 3 4 6 7 6 6 6 5 5 6 6 5 4 5 4 4 5 6 6 5 4 5 4 5 9 7 5 6 4 4 4 3 4 4 6 7 7 5 6
3 3 4 5 6 5 5 5 6 5 5 5 5 6 6 5 4 5 5 5 5 5 6 5 5 5 8 10 11 11 5 5 5 5 4 4 4 5 6 7 7 7
4 3 5 5 4 6 6 5 4 4 5 5 5 6 6 4 4 5 6 5 5 5 6 6 6 8 10 10 11 10 6 5 4 3 3 4 5 6 6 5 6 6
3 5 5 5 6 6 4 4 4 5 5 5 8 7 4 5 6 5 6 5 5 6 7 6 6 8 9 11 11 11 9 4 3 3 3 4 5 6 6 6 5 6
4 4 5 6 5 4 4 5 5 7 7 6 5 3 5 6 5 6 6 6 6 6 6 6 6 8 10 10 11 12 7 1 3 4 4 4 5 5 5 6 6 6
5 5 6 6 5 4 4 5 6 6 5 6 6 7 7 7 7 7 6 6 6 6 5 6 6 9 10 10 11 11 6 4 3 3 3 4 5 5 6 7 6 5
5 5 6 5 5 4 5 6 6 6 7 5 5 6 5 3 5 4 6 7 7 6 5 6 7 10 10 10 11 11 5 4 3 3 4 4 5 6 6 5 6 6
6 6 6 5 5 5 6 6 6 7 7 4 5 6 6 6 7 6 6 5 6 6 6 6 7 10 11 10 11 9 3 4 3 3 4 4 5 6 5 6 5 5
6 6 6 6 5 7 8 7 6 4 6 5 7 7 7 8 7 6 6 5 6 7 6 6 7 9 11 11 11 9 5 5 4 3 5 4 5 6 5 5 6 11
5 6 6 6 7 8 7 7 7 8 5 5 6 6 7 6 4 5 6 5 6 6 7 7 6 8 11 12 12 11 5 4 3 3 4 5 4 6 6 5 5 5
5 6 6 7 9 8 6 8 6 3 6 6 6 6 6 6 5 5 6 6 5 3 5 5 6 8 10 13 11 9 4 4 3 3 5 5 4 4 5 6 5 4
Wind_Direction
193 192 196 201 213 212 214 214 226 231 255 253 246 273 275 287 305 314 323 357 345 12 1 8 11 17 8 13 20 28 33 27 12 2 359 356 1 355 349 346 348 344
201 200 206 198 221 227 232 216 220 211 249 257 252 263 278 286 298 311 306 21 9 7 359 4 1 13 21 20 9 30 30 25 18 1 357 3 349 347 345 336 334 333
198 204 207 197 210 216 221 223 217 227 235 258 278 258 270 282 286 297 298 93 16 346 358 343 349 2 5 16 13 27 31 28 22 350 359 356 334 344 329 327 326 329
207 204 205 202 209 210 218 213 233 236 245 275 259 266 267 280 302 292 314 17 45 321 298 324 355 350 353 350 359 26 20 46 19 355 350 341 346 334 329 323 316 316
204 205 211 214 205 219 201 209 232 231 234 245 282 275 276 308 323 288 296 324 328 295 304 341 349 334 330 341 357 349 351 346 354 17 8 343 329 334 325 328 325 317
204 203 209 211 195 204 208 216 227 224 233 260 249 270 270 274 283 272 278 283 268 269 318 333 319 297 282 289 348 318 305 328 328 355 347 342 321 321 311 317 316 314
211 199 207 203 209 206 208 219 224 222 223 232 289 262 240 277 270 257 251 246 288 294 300 295 297 303 306 305 299 293 285 283 312 336 337 323 318 313 306 297 304 301
213 203 198 198 206 205 211 215 218 220 225 216 228 252 210 242 257 253 248 249 257 268 266 269 275 272 281 294 286 280 285 272 291 318 322 312 322 312 309 285 287 293
209 200 196 199 201 203 209 212 217 222 213 212 231 246 231 222 247 248 245 242 251 258 265 268 263 271 274 269 271 268 279 292 291 301 296 298 308 303 303 305 292 286
208 200 195 198 202 203 207 211 212 216 209 213 232 234 241 247 234 246 244 244 252 270 270 267 277 276 282 259 257 253 253 264 282 296 298 295 291 295 298 299 300 301
205 195 198 202 205 201 210 209 210 212 213 218 225 234 235 245 264 245 250 248 249 254 266 271 269 276 282 282 265 245 243 249 258 270 283 291 293 295 302 302 300 299
202 195 203 204 204 204 209 207 205 207 216 225 209 228 236 233 243 266 241 250 251 257 260 266 270 269 266 268 274 264 238 242 254 264 275 284 291 294 292 292 296 298
200 203 201 203 204 207 204 203 207 211 212 223 217 219 226 238 244 253 258 241 258 265 266 268 279 279 276 275 276 267 244 244 259 275 285 286 290 292 293 294 288 291
205 200 201 207 210 202 203 212 213 214 220 226 213 220 227 231 241 245 259 255 263 269 272 275 276 283 282 279 273 270 256 251 237 252 272 285 292 293 288 286 289 289
192 195 194 195 194 196 209 219 220 221 224 226 229 235 232 233 237 243 266 283 284 272 279 286 280 275 278 274 280 284 257 255 258 260 263 282 296 297 296 292 287 284
184 183 182 183 188 205 214 217 221 221 218 224 232 234 237 241 244 246 246 260 273 288 294 296 286 280 273 281 282 264 267 259 266 266 271 291 302 303 301 299 295 300
178 193 174 198 211 215 221 217 221 213 215 228 236 234 232 238 234 258 263 257 261 272 288 288 288 282 282 289 287 282 279 263 262 283 303 299 297 294 296 306 311 312
198 183 198 219 211 224 220 219 208 204 218 226 232 236 236 226 239 242 254 266 271 273 271 274 281 280 285 287 285 286 265 256 246 258 286 289 289 293 293 297 304 307
191 197 216 226 226 228 223 204 203 213 225 223 227 227 221 222 234 240 254 263 267 270 271 273 275 280 286 289 288 285 272 245 246 225 253 270 278 285 292 294 298 306
209 210 226 235 231 225 209 204 201 220 225 225 231 223 218 231 241 242 254 261 257 256 265 276 278 281 281 283 286 282 297 250 252 252 250 262 267 280 287 291 291 296
214 216 232 239 229 213 203 212 215 230 233 227 215 215 213 220 228 237 247 255 260 254 255 270 271 277 284 286 287 285 290 227 238 245 260 271 275 276 276 281 287 287
208 220 231 229 211 201 205 220 221 220 228 223 212 229 236 243 261 237 250 255 258 265 269 275 276 279 281 282 282 286 283 259 247 255 270 282 288 286 287 280 283 279
209 215 227 224 204 200 217 224 222 230 237 210 216 228 228 231 237 238 240 250 270 273 267 271 277 279 282 282 282 286 270 257 249 254 262 279 285 289 292 292 287 272
215 208 218 215 196 213 221 226 226 239 232 202 207 219 227 232 234 248 255 245 248 263 256 262 275 278 281 287 286 287 248 255 240 243 278 279 292 293 293 292 292 289
224 214 215 208 208 222 218 218 217 218 215 188 215 215 228 234 233 237 260 262 244 249 273 267 267 279 284 283 282 284 254 234 226 218 274 284 292 301 299 296 294 285
224 223 223 211 219 225 215 220 214 204 209 202 213 211 226 232 237 235 246 264 269 266 267 265 267 275 278 280 284 296 254 223 188 218 249 273 288 288 307 309 303 294